This demonstration page uses our WeatherBlox Daily Observations layout. Learn more.

Left ArrowRight Arrow

41.12389, -100.76542

Hourly Observations for August 14, 2022

Temp ( °F °C ) Dew Point ( °F °C ) Humidity (%) Winds ( mph kmh ) Pressure ( in mb ) Visibility ( mi km ) Precip ( " mm )
12:53 am 00:53 Clear 72 22.2 65 18.3 79 79 E 10 17 29.96 1015 10 16 0.00 0.00
1:53 am 01:53 Clear 72 22.2 66 18.9 82 82 ESE 12 19 29.96 1014 10 16 0.00 0.00
2:53 am 02:53 Clear 70 21.1 65 18.3 84 84 SE 10 17 29.95 1014 10 16 0.00 0.00
3:20 am 03:20 Partly Cloudy 70 21.1 66 18.9 87 87 ESE 13 20 29.92 1013 10 16 0.00 0.00
3:28 am 03:28 Mostly Cloudy 70 21.1 66 18.9 87 87 ESE 13 20 29.92 1013 10 16 0.00 0.00
3:53 am 03:53 Cloudy 70 21.1 66 18.9 87 87 ESE 14 22 29.94 1014 10 16 0.00 0.00
4:53 am 04:53 Cloudy 69 20.6 65 18.3 87 87 E 13 20 29.93 1014 10 16 0.00 0.00
5:53 am 05:53 Cloudy 69 20.6 65 18.3 87 87 E 6 9 29.98 1015 9 14 0.00 0.00
6:03 am 06:03 Cloudy 69 20.6 65 18.3 87 87 NE 8 13 29.94 1014 9 14 0.00 0.00
6:22 am 06:22 Cloudy 69 20.6 65 18.3 87 87 E 9 15 29.94 1014 10 16 0.00 0.00
6:53 am 06:53 Cloudy 69 20.6 65 18.3 87 87 ENE 10 17 29.97 1015 10 16 0.00 0.00
7:53 am 07:53 Cloudy 69 20.6 64 17.8 84 84 ESE 13 20 29.96 1015 10 16 0.00 0.00
8:53 am 08:53 Cloudy 69 20.6 64 17.8 84 84 E 12 19 29.97 1015 10 16 0.00 0.00
9:53 am 09:53 Cloudy 71 21.7 65 18.3 81 81 ESE 14 22 29.96 1015 10 16 0.00 0.00
10:44 am 10:44 Cloudy 73 22.8 64 17.8 73 73 ESE 13 20 29.90 1013 10 16 0.00 0.00
10:53 am 10:53 Cloudy 73 22.8 64 17.8 73 73 E 13 20 29.96 1014 10 16 0.00 0.00
11:43 am 11:43 Partly Cloudy 75 23.9 65 18.3 71 71 SE 6 9 29.89 1012 10 16 0.00 0.00
11:53 am 11:53 Mostly Sunny 76 24.4 64 17.8 67 67 E 7 11 29.96 1014 10 16 0.00 0.00
12:53 pm 12:53 Sunny 83 28.3 64 17.8 53 53 VRB 5 7 29.93 1014 10 16 0.00 0.00
1:53 pm 13:53 Sunny 87 30.6 66 18.9 50 50 ESE 9 15 29.90 1013 10 16 0.00 0.00
2:53 pm 14:53 Sunny 92 33.3 66 18.9 43 43 ESE 14 22 29.88 1012 10 16 0.00 0.00
3:53 pm 15:53 Sunny 95 35 68 20 42 42 E 15 24 29.86 1011 10 16 0.00 0.00
4:53 pm 16:53 Sunny 93 33.9 69 20.6 46 46 E 16 26 29.85 1011 10 16 0.00 0.00
5:53 pm 17:53 Sunny 91 32.8 70 21.1 50 50 E 21 33 29.84 1010 10 16 0.00 0.00
6:53 pm 18:53 Sunny 89 31.7 70 21.1 54 54 ESE 16 26 29.83 1010 10 16 0.00 0.00
7:53 pm 19:53 Sunny 85 29.4 69 20.6 59 59 ESE 14 22 29.84 1011 10 16 0.00 0.00
8:53 pm 20:53 Clear 82 27.8 68 20 63 63 ESE 16 26 29.84 1011 10 16 0.00 0.00
9:53 pm 21:53 Mostly Clear 79 26.1 68 20 69 69 E 13 20 29.87 1012 10 16 0.00 0.00
10:53 pm 22:53 Mostly Cloudy 78 25.6 68 20 71 71 E 16 26 29.87 1011 10 16 0.00 0.00
11:25 pm 23:25 Cloudy with Thunderstorms 76 24.4 69 20.6 79 79 ESE 15 24 29.81 1009 10 16 0.02 0.51
11:40 pm 23:40 Cloudy 75 23.9 68 20 79 79 ESE 14 22 29.81 1010 10 16 0.02 0.51
11:53 pm 23:53 Cloudy 75 23.9 68 20 79 79 ESE 14 22 29.87 1011 10 16 0.02 0.51

Powered by AerisWeather